This demonstration page uses our WeatherBlox Daily Observations layout. Learn more.

Left ArrowRight Arrow

Hourly Observations for December 18, 2021

Temp ( °F °C ) Dew Point ( °F °C ) Humidity (%) Winds ( mph kmh ) Pressure ( in mb ) Visibility ( mi km ) Precip ( " mm )
12:15 am 00:15 Cloudy 25 -4.1 18 -7.7 76 76 N 17 28 30.36 1028 10 16 0.00 0.00
12:35 am 00:35 Cloudy 24 -4.2 18 -7.8 76 76 NNW 16 26 30.37 1028 10 16 0.00 0.00
12:55 am 00:55 Cloudy 24 -4.3 17 -8.2 75 75 NNW 17 28 30.36 1028 10 16 0.00 0.00
1:15 am 01:15 Cloudy 24 -4.5 17 -8.6 73 73 NNW 20 31 30.37 1028 10 16 0.00 0.00
1:35 am 01:35 Cloudy 24 -4.2 17 -8.4 73 73 NNW 24 39 30.39 1029 10 16 0.00 0.00
1:55 am 01:55 Cloudy 24 -4.6 16 -8.9 72 72 NNW 17 28 30.39 1029 10 16 0.00 0.00
2:15 am 02:15 Cloudy 22 -5.4 15 -9.5 73 73 NNW 17 28 30.42 1030 10 16 0.00 0.00
2:35 am 02:35 Cloudy 22 -5.7 14 -9.8 73 73 N 20 31 30.43 1031 10 16 0.00 0.00
2:55 am 02:55 Cloudy 21 -6 14 -10 74 74 NNW 17 28 30.43 1031 10 16 0.00 0.00
3:15 am 03:15 Mostly Cloudy 21 -6.3 13 -10.4 73 73 NNW 17 28 30.46 1031 10 16 0.00 0.00
3:35 am 03:35 Partly Cloudy 19 -7.1 12 -11 74 74 NNW 16 26 30.46 1031 10 16 0.00 0.00
3:55 am 03:55 Clear 18 -7.7 11 -11.4 75 75 NW 15 24 30.48 1032 10 16 0.00 0.00
4:15 am 04:15 Clear 17 -8.3 10 -12.2 74 74 NNW 14 22 30.48 1032 10 16 0.00 0.00
4:35 am 04:35 Clear 17 -8.6 9 -12.6 73 73 NNW 14 22 30.48 1032 10 16 0.00 0.00
4:55 am 04:55 Clear 16 -8.7 9 -13 71 71 NNW 12 19 30.48 1032 10 16 0.00 0.00
5:15 am 05:15 Clear 16 -9 8 -13.2 72 72 NNW 13 20 30.49 1032 10 16 0.00 0.00
5:35 am 05:35 Clear 15 -9.3 8 -13.2 74 74 NNW 12 19 30.49 1032 10 16 0.00 0.00
5:55 am 05:55 Clear 15 -9.5 8 -13.1 75 75 NNW 12 19 30.49 1033 10 16 0.00 0.00
6:15 am 06:15 Clear 15 -9.7 8 -13.5 74 74 NNW 13 20 30.50 1033 10 16 0.00 0.00
6:35 am 06:35 Clear 14 -10 7 -14 73 73 NW 10 17 30.54 1034 10 16 0.00 0.00
6:55 am 06:55 Clear 14 -10.2 7 -14.1 73 73 NNW 9 15 30.54 1034 10 16 0.00 0.00
7:15 am 07:15 Clear 14 -10.2 6 -14.5 71 71 NNW 12 19 30.55 1034 10 16 0.00 0.00
7:35 am 07:35 Clear 12 -10.9 6 -14.5 75 75 NW 8 13 30.56 1035 10 16 0.00 0.00
7:55 am 07:55 Clear 12 -10.9 6 -14.6 74 74 NW 8 13 30.57 1035 10 16 0.00 0.00
8:15 am 08:15 Sunny 13 -10.7 6 -14.5 74 74 NNW 8 13 30.56 1035 10 16 0.00 0.00
8:35 am 08:35 Sunny 13 -10.4 6 -14.5 72 72 NNW 12 19 30.57 1035 10 16 0.00 0.00
8:55 am 08:55 Sunny 14 -10.1 6 -14.7 69 69 N 14 22 30.57 1035 10 16 0.00 0.00
9:15 am 09:15 Sunny 15 -9.6 6 -14.5 68 68 NNW 15 24 30.56 1035 10 16 0.00 0.00
9:35 am 09:35 Sunny 15 -9.3 6 -14.5 66 66 NNW 16 26 30.57 1035 10 16 0.00 0.00
9:55 am 09:55 Sunny 16 -9 6 -14.5 65 65 NNW 15 24 30.58 1035 10 16 0.00 0.00
10:15 am 10:15 Sunny 17 -8.3 7 -14.1 63 63 NNW 13 20 30.57 1035 10 16 0.00 0.00
10:35 am 10:35 Sunny 18 -7.8 7 -14 61 61 N 12 19 30.56 1035 10 16 0.00 0.00
10:55 am 10:55 Sunny 19 -7.5 7 -14 60 60 N 13 20 30.56 1035 10 16 0.00 0.00
11:15 am 11:15 Sunny 19 -7 7 -14.1 57 57 NNW 14 22 30.55 1034 10 16 0.00 0.00
11:35 am 11:35 Sunny 21 -6.3 7 -14 55 55 N 15 24 30.54 1034 10 16 0.00 0.00
11:55 am 11:55 Sunny 21 -6 7 -14 54 54 NNW 12 19 30.53 1034 10 16 0.00 0.00
12:15 pm 12:15 Sunny 22 -5.5 7 -13.7 53 53 NNW 10 17 30.51 1033 10 16 0.00 0.00
12:35 pm 12:35 Sunny 23 -4.8 7 -13.7 50 50 NNW 10 17 30.49 1033 10 16 0.00 0.00
12:55 pm 12:55 Sunny 24 -4.6 8 -13.6 50 50 NNW 10 17 30.48 1032 10 16 0.00 0.00
1:15 pm 13:15 Sunny 25 -4 8 -13.4 48 48 NNW 8 13 30.47 1032 10 16 0.00 0.00
1:35 pm 13:35 Sunny 25 -3.9 8 -13.6 47 47 NNW 6 9 30.45 1031 10 16 0.00 0.00
1:55 pm 13:55 Sunny 26 -3.5 8 -13.5 46 46 NNW 8 13 30.44 1031 10 16 0.00 0.00
2:15 pm 14:15 Sunny 26 -3.2 8 -13.5 45 45 NNW 9 15 30.43 1030 10 16 0.00 0.00
2:35 pm 14:35 Sunny 27 -2.9 8 -13.4 45 45 NNW 7 11 30.42 1030 10 16 0.00 0.00
2:55 pm 14:55 Sunny 28 -2.5 8 -13.4 43 43 NNW 8 13 30.42 1030 10 16 0.00 0.00
3:15 pm 15:15 Sunny 28 -2.5 8 -13.5 43 43 NNW 6 9 30.42 1030 10 16 0.00 0.00
3:35 pm 15:35 Sunny 28 -2.5 8 -13.4 43 43 NNW 3 6 30.42 1030 10 16 0.00 0.00
3:55 pm 15:55 Sunny 28 -2.5 8 -13.5 43 43 NW 3 6 30.42 1030 10 16 0.00 0.00
4:15 pm 16:15 Sunny 28 -2.5 8 -13.5 43 43 NNW 3 6 30.41 1030 10 16 0.00 0.00
4:35 pm 16:35 Sunny 27 -2.6 8 -13.5 43 43 WNW 3 6 30.41 1030 10 16 0.00 0.00
4:55 pm 16:55 Sunny 26 -3.2 8 -13.2 46 46 Calm 30.42 1030 10 16 0.00 0.00
5:15 pm 17:15 Clear 25 -4 8 -13.4 48 48 Calm 30.42 1030 10 16 0.00 0.00
5:35 pm 17:35 Clear 23 -4.8 8 -13.5 51 51 Calm 30.43 1031 10 16 0.00 0.00
5:55 pm 17:55 Clear 23 -4.9 8 -13.2 53 53 Calm 30.43 1031 10 16 0.00 0.00
6:15 pm 18:15 Clear 23 -5 8 -13.1 53 53 Calm 30.43 1031 10 16 0.00 0.00
6:35 pm 18:35 Clear 19 -7.3 8 -13.3 63 63 Calm 30.46 1031 10 16 0.00 0.00
6:55 pm 18:55 Clear 19 -7.1 8 -13.3 62 62 Calm 30.46 1031 10 16 0.00 0.00
7:15 pm 19:15 Clear 17 -8.4 7 -13.7 66 66 S 3 6 30.47 1032 10 16 0.00 0.00
7:35 pm 19:35 Clear 16 -9.1 6 -14.3 66 66 SSE 6 9 30.48 1032 10 16 0.00 0.00
7:55 pm 19:55 Clear 13 -10.4 5 -15.1 69 69 S 6 9 30.48 1032 10 16 0.00 0.00
8:15 pm 20:15 Clear 15 -9.5 6 -14.4 68 68 S 6 9 30.47 1032 10 16 0.00 0.00
8:35 pm 20:35 Clear 13 -10.4 4 -15.3 68 68 Calm 30.48 1032 10 16 0.00 0.00
8:55 pm 20:55 Clear 12 -11 6 -14.7 74 74 SSE 3 6 30.48 1032 10 16 0.00 0.00
9:15 pm 21:15 Clear 13 -10.6 5 -15 70 70 SSE 5 7 30.47 1032 10 16 0.00 0.00
9:35 pm 21:35 Clear 13 -10.4 6 -14.4 73 73 SSE 6 9 30.47 1032 10 16 0.00 0.00
9:55 pm 21:55 Clear 13 -10.4 6 -14.3 73 73 S 6 9 30.46 1031 10 16 0.00 0.00
10:15 pm 22:15 Clear 16 -9.1 7 -13.9 68 68 S 8 13 30.45 1031 10 16 0.00 0.00
10:35 pm 22:35 Clear 14 -10.2 6 -14.3 72 72 S 6 9 30.46 1031 10 16 0.00 0.00
10:55 pm 22:55 Clear 14 -10 7 -14.1 72 72 S 5 7 30.45 1031 10 16 0.00 0.00
11:15 pm 23:15 Clear 14 -10.1 7 -14 73 73 S 7 11 30.45 1031 10 16 0.00 0.00
11:35 pm 23:35 Clear 16 -8.7 9 -13 71 71 S 9 15 30.42 1030 10 16 0.00 0.00
11:55 pm 23:55 Clear 16 -9 9 -13 73 73 S 8 13 30.43 1030 10 16 0.00 0.00

Powered by AerisWeather